Location: Mentone
(34.5413°N, 85.5351°W)
Time: 13:04:10
(UTC-05:00)

AO-Echo - Visible Passes

Search period start: 29 August 2014 00:00
Search period end: 08 September 2014 00:00
Orbit: 694 x 814 km, 98.3° (Epoch: 25 August)

Date Brightness Start Highest point End Pass type
(mag) Time Alt. Az. Time Alt. Az. Time Alt. Az.
29 Aug ? 02:51:18 10° NNE 02:52:43 20° NNE 02:52:43 20° NNE visible
30 Aug ? 02:11:42 10° NE 02:12:03 12° NE 02:12:03 12° NE visible
30 Aug ? 03:50:50 10° NNW 03:52:00 15° NNW 03:52:00 15° NNW visible
31 Aug ? 03:09:57 10° N 03:11:21 19° N 03:11:21 19° N visible
01 Sep ? 02:29:56 10° NNE 02:30:41 14° NNE 02:30:41 14° NNE visible
01 Sep ? 04:10:21 10° NW 04:10:38 11° NW 04:10:38 11° NW visible
02 Sep ? 03:28:46 10° N 03:29:59 17° NNW 03:29:59 17° NNW visible
03 Sep ? 02:48:23 10° NNE 02:49:19 16° NNE 02:49:19 16° NNE visible
04 Sep ? 03:47:49 10° NNW 03:48:36 14° NNW 03:48:36 14° NNW visible
05 Sep ? 03:07:00 10° N 03:07:57 16° N 03:07:57 16° N visible
06 Sep ? 02:27:02 10° NNE 02:27:17 11° NNE 02:27:17 11° NNE visible
06 Sep ? 04:07:14 10° NNW 04:07:14 10° NNW 04:07:14 10° NNW visible
07 Sep ? 03:25:47 10° N 03:26:35 15° N 03:26:35 15° N visible
